N8XE-13 Weather Reports


time (UTC)temp
C
wind
direction
speed
KPH
gust
KPH
rain 1hr
cm
rain 24hr
cm
rain mn
cm
humidity
%
barometer
mb
20260504151016 17 289 0.0 8.0 0.00 0.00 0.00 62
20260504150514 17 192 1.6 9.7 0.00 0.00 0.00 61
20260504140940 15 250 3.2 4.8 0.00 0.00 0.00 64
20260504140436 15 230 4.8 8.0 0.00 0.00 0.00 63
20260504130401 13 212 1.6 4.8 0.00 0.00 0.00 65
20260504110248 8 189 0.0 0.0 0.00 0.00 0.00 74
20260504100211 8 302 0.0 0.0 0.00 0.00 0.00 74
20260504090134 9 261 0.0 0.0 0.00 0.00 0.00 72
20260504081604 10 277 0.0 0.0 0.00 0.00 0.00 70
20260504081100 10 277 0.0 0.0 0.00 0.00 0.00 69
20260504080557 10 303 0.0 0.0 0.00 0.00 0.00 69
20260504050410 11 213 0.0 0.0 0.00 0.00 0.00 66
20260504045907 11 168 0.0 0.0 0.00 0.00 0.00 66
20260504045402 11 270 0.0 0.0 0.00 0.00 0.00 66
20260504044859 11 243 0.0 0.0 0.00 0.00 0.00 67
20260504044356 11 220 3.2 8.0 0.00 0.00 0.00 67
20260504043853 11 239 0.0 0.0 0.00 0.00 0.00 67
20260504043350 11 202 0.0 0.0 0.00 0.00 0.00 66
20260504042848 11 177 0.0 0.0 0.00 0.00 0.00 63
20260504042344 11 209 0.0 11.3 0.00 0.00 0.00 61
20260504041840 11 220 0.0 0.0 0.00 0.00 0.00 62
20260504041337 11 240 0.0 0.0 0.00 0.00 0.00 63
20260504040833 11 265 0.0 0.0 0.00 0.00 0.00 63
20260504040331 11 206 0.0 0.0 0.00 0.00 0.00 65
20260504035826 11 191 0.0 0.0 0.00 0.00 0.00 65
20260504035325 11 176 0.0 0.0 0.00 0.00 0.00 65
20260504034821 11 201 0.0 1.6 0.00 0.00 0.00 65
20260504034319 11 201 0.0 0.0 0.00 0.00 0.00 65
20260504033816 11 285 0.0 0.0 0.00 0.00 0.00 64
20260504033314 11 247 0.0 0.0 0.00 0.00 0.00 65
20260504032810 11 262 0.0 0.0 0.00 0.00 0.00 65
20260504032307 11 193 0.0 0.0 0.00 0.00 0.00 66
20260504031804 10 265 0.0 1.6 0.00 0.00 0.00 67
20260504031301 10 263 0.0 0.0 0.00 0.00 0.00 69
20260504030757 10 303 0.0 0.0 0.00 0.00 0.00 69
20260504030254 10 291 0.0 0.0 0.00 0.00 0.00 69
20260504025750 10 255 0.0 0.0 0.00 0.00 0.00 69
20260504025248 10 288 0.0 0.0 0.00 0.00 0.00 69
20260504024744 10 213 0.0 0.0 0.00 0.00 0.00 70
20260504024241 10 248 0.0 0.0 0.00 0.00 0.00 71
20260504023738 10 324 0.0 0.0 0.00 0.00 0.00 71
20260504023234 10 313 0.0 0.0 0.00 0.00 0.00 71
20260504022730 10 321 0.0 0.0 0.00 0.00 0.00 71
20260504022226 10 311 0.0 0.0 0.00 0.00 0.00 72
20260504021724 10 325 0.0 0.0 0.00 0.00 0.00 72
20260504021221 10 334 0.0 0.0 0.00 0.00 0.00 72
20260504020717 10 326 0.0 0.0 0.00 0.00 0.00 71
20260504020214 10 318 0.0 0.0 0.00 0.00 0.00 70
20260504015711 10 319 0.0 0.0 0.00 0.00 0.00 70
20260504015207 10 326 0.0 0.0 0.00 0.00 0.00 70
20260504014703 10 322 0.0 0.0 0.00 0.00 0.00 69
20260504014200 10 291 0.0 0.0 0.00 0.00 0.00 70
20260504013658 10 342 0.0 0.0 0.00 0.00 0.00 69
20260504013154 10 243 0.0 0.0 0.00 0.00 0.00 69
20260504012651 10 247 0.0 0.0 0.00 0.00 0.00 69
20260504012149 10 198 0.0 0.0 0.00 0.00 0.00 69
20260504011646 10 240 0.0 0.0 0.00 0.00 0.00 69
20260504011142 10 245 0.0 0.0 0.00 0.00 0.00 69
20260504010638 10 257 0.0 0.0 0.00 0.00 0.00 69
20260504010134 10 257 0.0 0.0 0.00 0.00 0.00 69
20260504005631 10 209 0.0 0.0 0.00 0.00 0.00 70
20260504005128 10 283 0.0 0.0 0.00 0.00 0.00 70
20260504004626 10 330 0.0 0.0 0.00 0.00 0.00 71
20260504004123 10 322 0.0 0.0 0.00 0.00 0.00 71
20260504003619 10 323 0.0 0.0 0.00 0.00 0.00 71
20260504003116 10 294 0.0 0.0 0.00 0.00 0.00 71
20260504002613 10 326 0.0 0.0 0.00 0.00 0.00 71
20260504002111 10 322 0.0 0.0 0.00 0.00 0.00 71
20260504001608 10 322 0.0 0.0 0.00 0.00 0.00 72
20260504001104 10 337 0.0 0.0 0.00 0.00 0.00 72
20260504000601 10 340 0.0 0.0 0.00 0.00 0.00 72
20260504000059 10 342 0.0 0.0 0.00 0.00 0.00 71
20260503235557 10 336 0.0 0.0 0.00 0.00 0.00 72
20260503235053 10 342 0.0 0.0 0.00 0.00 0.00 72
20260503234551 10 324 0.0 0.0 0.00 0.00 0.00 73
20260503234049 10 325 0.0 0.0 0.00 0.00 0.00 71
20260503233545 10 242 0.0 0.0 0.00 0.00 0.00 72
20260503233041 10 270 0.0 3.2 0.00 0.00 0.00 71
20260503232539 10 208 0.0 12.9 0.00 0.00 0.00 68
20260503232036 11 230 1.6 9.7 0.00 0.00 0.00 66
20260503231534 11 303 1.6 12.9 0.00 0.00 0.00 61
20260503231030 11 253 8.0 17.7 0.00 0.00 0.00 59
20260503230527 12 273 1.6 4.8 0.00 0.00 0.00 58
20260503230024 12 225 0.0 4.8 0.00 0.00 0.00 56
20260503225521 12 278 1.6 4.8 0.00 0.00 0.00 55
20260503225016 12 203 3.2 9.7 0.00 0.00 0.00 53
20260503224514 12 282 3.2 14.5 0.00 0.00 0.00 51
20260503224011 13 273 1.6 14.5 0.00 0.00 0.00 48
20260503223509 13 182 1.6 8.0 0.00 0.00 0.00 46
20260503223004 13 213 6.4 12.9 0.00 0.00 0.00 44
20260503222503 15 232 3.2 11.3 0.00 0.00 0.00 42
20260503222000 15 223 4.8 11.3 0.00 0.00 0.00 40
20260503221459 15 280 0.0 12.9 0.00 0.00 0.00 40
20260503220956 15 203 1.6 4.8 0.00 0.00 0.00 39
20260503220452 15 233 3.2 4.8 0.00 0.00 0.00 40
20260503215949 15 239 0.0 12.9 0.00 0.00 0.00 40
20260503215445 15 260 0.0 3.2 0.00 0.00 0.00 41
20260503214943 15 200 1.6 4.8 0.00 0.00 0.00 40
20260503214441 15 201 6.4 20.9 0.00 0.00 0.00 39
20260503213938 15 207 1.6 9.7 0.00 0.00 0.00 39
20260503213436 15 235 1.6 3.2 0.00 0.00 0.00 39
20260503212932 15 193 1.6 17.7 0.00 0.00 0.00 39
20260503212430 15 223 1.6 16.1 0.00 0.00 0.00 38
20260503211927 15 187 1.6 8.0 0.00 0.00 0.00 37
20260503211424 15 246 0.0 12.9 0.00 0.00 0.00 37
20260503210919 15 295 1.6 9.7 0.00 0.00 0.00 38
20260503210417 16 214 6.4 16.1 0.00 0.00 0.00 37
20260503205917 16 199 3.2 16.1 0.00 0.00 0.00 39
20260503205414 16 195 3.2 8.0 0.00 0.00 0.00 37
20260503204910 16 220 3.2 11.3 0.00 0.00 0.00 37
20260503204408 16 248 0.0 4.8 0.00 0.00 0.00 38
20260503203905 16 228 0.0 8.0 0.00 0.00 0.00 38
20260503203402 16 317 1.6 8.0 0.00 0.00 0.00 37
20260503202859 16 268 0.0 3.2 0.00 0.00 0.00 37
20260503202357 16 234 1.6 3.2 0.00 0.00 0.00 38
20260503201855 16 179 3.2 16.1 0.00 0.00 0.00 37
20260503201352 17 244 1.6 22.5 0.00 0.00 0.00 36
20260503200849 16 243 0.0 8.0 0.00 0.00 0.00 36
20260503200345 17 333 0.0 17.7 0.00 0.00 0.00 36
20260503195842 17 239 0.0 4.8 0.00 0.00 0.00 36
20260503195338 17 211 0.0 8.0 0.00 0.00 0.00 36
20260503194836 17 275 0.0 3.2 0.00 0.00 0.00 36
20260503194332 17 221 1.6 4.8 0.00 0.00 0.00 35
20260503193828 17 222 0.0 20.9 0.00 0.00 0.00 36
20260503193324 17 177 0.0 8.0 0.00 0.00 0.00 37
20260503192820 17 305 1.6 8.0 0.00 0.00 0.00 36
20260503192316 17 209 0.0 3.2 0.00 0.00 0.00 35
20260503191812 16 226 0.0 4.8 0.00 0.00 0.00 36
20260503191310 16 236 3.2 9.7 0.00 0.00 0.00 36
20260503190806 16 201 1.6 4.8 0.00 0.00 0.00 36
20260503190303 17 216 4.8 12.9 0.00 0.00 0.00 33
20260503185800 17 264 0.0 1.6 0.00 0.00 0.00 36
20260503185256 17 190 1.6 4.8 0.00 0.00 0.00 35
20260503184755 17 214 0.0 12.9 0.00 0.00 0.00 36
20260503184252 16 217 4.8 9.7 0.00 0.00 0.00 36
20260503183748 16 262 1.6 9.7 0.00 0.00 0.00 35
20260503183246 16 224 0.0 9.7 0.00 0.00 0.00 36
20260503182743 16 233 3.2 8.0 0.00 0.00 0.00 36
20260503182242 16 209 1.6 11.3 0.00 0.00 0.00 36
20260503181739 16 189 3.2 8.0 0.00 0.00 0.00 36
20260503181236 16 225 3.2 8.0 0.00 0.00 0.00 36
20260503180732 16 245 4.8 9.7 0.00 0.00 0.00 36
20260503180231 16 252 4.8 14.5 0.00 0.00 0.00 36
20260503175727 15 237 3.2 9.7 0.00 0.00 0.00 38
20260503175225 16 284 4.8 11.3 0.00 0.00 0.00 37
20260503174720 16 194 1.6 11.3 0.00 0.00 0.00 38
20260503174219 16 197 1.6 12.9 0.00 0.00 0.00 37
20260503173713 15 245 4.8 11.3 0.00 0.00 0.00 39
20260503173210 16 253 1.6 8.0 0.00 0.00 0.00 38
20260503172707 15 239 1.6 9.7 0.00 0.00 0.00 38
20260503172204 15 179 3.2 8.0 0.00 0.00 0.00 37
20260503171700 16 309 1.6 9.7 0.00 0.00 0.00 37
20260503171158 16 223 4.8 8.0 0.00 0.00 0.00 39
20260503170654 15 226 3.2 11.3 0.00 0.00 0.00 37
20260503170151 15 218 1.6 4.8 0.00 0.00 0.00 39
20260503160113 15 202 0.0 8.0 0.00 0.00 0.00 42